Temp
57 57 57 57 57 57 57 57 57 58 58 58 59 60 60 61 60 64 77 84 78 79 87 90 91 87 90 89 85 90 88 91 89 82 84 86 82 84 83 84 83 80 78 79 81 76 72 94 93 84 89 93 95 97
57 57 57 57 57 57 57 57 57 57 58 58 58 59 60 61 60 60 72 87 84 75 84 89 90 93 92 92 90 94 89 86 91 85 89 88 83 87 82 77 88 80 88 84 86 82 90 94 93 96 97 94 95 96
56 56 56 57 57 56 56 57 57 57 57 58 58 59 59 59 59 59 69 77 77 76 81 85 86 95 99 96 100 85 93 94 91 94 88 88 78 87 80 82 84 85 90 86 85 89 90 94 97 98 98 96 98 100
56 56 56 56 56 56 56 56 56 57 57 57 58 58 58 58 58 57 67 75 76 76 73 85 99 91 97 100 96 96 94 96 96 94 87 86 83 91 85 84 85 88 87 86 85 89 90 92 95 96 97 98 98 99
55 56 56 56 56 56 56 56 56 56 57 57 58 57 57 58 57 62 71 76 79 72 71 80 92 95 97 95 92 93 93 92 90 86 85 84 91 88 89 88 85 92 87 84 86 91 89 90 95 97 95 95 97 96
55 55 55 55 55 55 56 56 56 56 57 57 57 57 57 57 56 67 68 78 80 78 70 72 92 89 93 93 90 89 91 91 90 87 87 91 92 87 82 80 90 96 97 97 90 94 93 96 98 98 96 96 98 97
55 55 55 55 56 56 56 56 56 56 56 56 56 56 56 56 62 61 58 55 58 70 70 71 77 89 91 90 89 89 91 89 89 87 85 87 88 83 83 79 89 92 94 94 95 93 89 94 93 98 97 98 91 99
55 55 55 55 56 56 56 56 56 56 56 56 56 56 55 55 56 61 72 56 58 66 72 68 74 82 90 82 81 90 85 87 86 84 88 85 87 84 77 85 89 91 91 91 92 95 97 98 97 95 97 97 96 96
54 55 55 55 55 56 55 56 56 56 56 56 56 56 62 62 63 62 59 57 60 58 55 69 71 72 89 85 87 86 87 78 87 80 82 85 81 74 80 83 86 89 87 88 92 94 94 93 92 93 95 95 94 94
54 54 55 55 55 55 55 55 55 56 55 55 58 59 59 65 59 61 58 54 51 52 53 56 78 73 84 83 82 80 83 79 75 80 86 79 79 86 88 89 88 87 88 89 86 86 89 89 91 92 92 95 96 96
54 55 55 55 55 55 55 55 55 55 55 59 54 59 64 60 62 56 50 49 50 47 51 61 72 73 85 77 78 83 78 79 72 79 77 76 76 83 88 87 85 85 86 87 89 89 90 90 89 89 92 94 96 96
54 54 55 55 55 55 55 55 55 57 56 53 53 61 67 57 52 45 46 48 48 48 51 61 67 74 68 83 76 77 74 78 69 85 77 72 81 85 87 84 83 84 86 87 87 87 89 89 90 90 91 92 94 95
54 54 54 55 55 55 55 55 55 55 55 62 54 52 55 53 40 40 38 42 44 51 52 64 67 71 73 74 73 65 66 68 84 74 74 78 81 80 82 83 83 85 85 85 85 85 86 87 89 90 90 92 93 93
54 54 55 55 55 55 54 55 55 56 55 46 47 39 46 46 52 54 54 52 51 51 50 50 58 66 71 64 69 62 69 72 64 66 70 78 72 74 78 80 81 80 82 83 82 83 84 84 86 88 89 90 90 90
54 54 55 55 55 55 55 54 55 60 48 43 45 38 52 61 60 60 63 61 58 52 51 49 51 55 57 57 59 62 59 60 67 67 78 73 72 72 74 76 79 80 80 81 82 82 82 83 84 85 88 88 89 88
54 54 57 55 54 54 53 53 53 52 46 43 44 45 57 56 58 60 59 51 55 52 51 50 47 49 49 51 50 56 60 61 69 78 75 72 69 70 72 75 76 78 77 80 80 80 81 81 83 84 85 88 89 88
53 56 54 53 53 53 53 50 48 44 42 42 42 56 51 53 53 51 59 57 65 55 48 47 42 45 48 49 53 63 60 66 69 73 73 69 67 67 70 71 72 73 75 76 77 78 78 81 83 82 81 84 87 86
54 53 53 53 52 50 48 48 45 42 39 47 49 54 57 54 48 49 53 59 61 49 48 45 47 44 43 44 47 54 65 71 70 73 71 69 68 69 71 70 71 72 72 74 75 77 78 79 77 83 83 84 84 85
55 52 53 52 51 48 44 45 45 38 41 49 51 59 58 55 54 59 64 60 58 60 50 47 45 44 46 49 49 56 61 66 69 69 67 69 69 69 70 71 71 72 73 73 74 78 80 78 79 82 83 84 83 84
53 53 52 52 53 46 44 44 47 46 47 51 51 54 57 59 63 58 62 62 59 49 47 44 44 48 48 50 51 51 52 53 64 67 67 70 71 69 70 73 76 75 73 73 74 67 78 80 82 83 84 81 78 81
51 51 52 52 48 51 45 44 43 50 55 52 56 52 54 60 59 59 59 62 55 54 48 50 47 51 53 52 52 54 56 57 58 61 62 65 71 72 73 73 73 75 73 74 78 76 68 79 81 82 82 82 82 82
49 53 49 50 48 51 49 52 47 47 49 53 53 56 53 51 55 58 61 57 55 59 59 55 51 51 51 51 53 56 58 63 65 63 55 57 64 64 65 67 73 75 76 77 77 77 79 81 81 80 79 80 73 79
52 52 51 53 47 45 45 53 43 48 43 47 48 45 50 53 55 60 53 57 60 66 65 62 60 58 54 58 61 66 67 66 67 69 70 72 74 74 75 76 78 76 74 76 78 78 77 63 72 75 78 78 77 77
52 47 46 46 47 42 54 48 51 51 50 47 47 47 49 50 56 56 52 56 62 65 67 64 67 64 64 62 57 65 70 72 71 71 73 72 72 74 76 76 77 78 77 78 77 77 77 77 64 78 78 78 78 78
41 42 45 35 50 46 45 48 48 47 43 46 46 47 48 54 48 49 50 52 64 62 63 67 68 66 64 66 70 71 73 71 69 69 74 75 74 75 75 78 78 79 81 77 76 75 76 77 77 77 77 77 76 76
35 46 40 46 49 45 47 42 45 46 49 46 49 57 58 52 47 45 52 58 61 59 58 65 67 67 67 69 70 71 72 74 71 69 73 76 76 74 73 73 74 77 83 81 78 76 76 76 76 75 76 74 56 71
37 43 50 57 52 50 48 51 53 49 47 47 51 50 51 46 46 51 57 62 57 67 71 71 70 58 62 66 72 75 77 76 74 74 75 77 78 79 78 75 73 77 79 78 77 76 75 76 76 76 76 76 76 76
50 49 41 49 46 49 40 42 45 47 50 52 52 46 47 46 44 53 59 67 72 74 74 76 77 77 72 71 73 74 75 76 76 77 77 78 80 79 80 80 80 52 75 77 78 78 77 76 76 77 75 72 73 74
50 55 55 46 45 46 46 46 48 54 57 57 50 49 51 54 61 65 67 72 75 73 70 67 67 76 76 75 76 76 76 76 71 66 65 64 66 69 71 69 74 77 80 76 48 63 72 73 74 74 74 73 71 71
53 60 52 51 48 46 53 58 56 64 63 65 62 61 61 66 72 75 71 71 69 70 71 72 72 74 70 70 69 69 75 74 71 68 63 64 67 71 73 72 73 75 74 73 71 65 46 62 61 70 69 70 72 71
64 62 56 56 54 59 63 65 66 67 66 64 65 62 59 65 70 74 75 74 73 73 71 69 70 72 72 71 67 64 68 67 69 73 75 73 72 72 71 73 76 76 73 69 71 73 72 70 69 68 69 69 68 65
59 55 55 52 55 63 65 63 62 61 61 59 58 62 61 59 56 58 68 70 68 66 58 65 65 69 70 67 68 67 49 72 67 66 65 66 67 69 72 72 70 69 71 75 74 70 69 70 70 70 67 67 65 63
57 57 57 56 56 56 61 60 57 54 54 49 50 52 55 53 51 55 67 67 67 64 63 65 66 67 63 66 63 64 58 68 59 51 50 47 43 50 64 73 72 70 71 68 73 74 71 67 67 66 65 62 64 60
MSLP
1024.96 1024.68 1024.33 1024.08 1023.73 1023.44 1023.06 1022.76 1022.36 1021.83 1021.32 1020.77 1020.14 1019.53 1018.92 1018.47 1018.15 1017.51 1014.29 1013.36 1012.75 1010.12 1007.27 1006.51 1006.03 1005.41 1004.70 1004.45 1003.33 1003.22 1003.49 1002.72 1002.17 1001.71 1000.61 1000.00 1000.22 1000.31 1000.43 1000.29 1000.15 1000.47 1000.37 1000.26 1000.37 1000.11 1000.46 1001.00 1000.99 1001.11 1001.52 1001.68 1001.20 1001.16
1024.74 1024.42 1024.08 1023.77 1023.54 1023.22 1022.88 1022.48 1022.13 1021.69 1021.22 1020.68 1020.11 1019.39 1018.73 1018.34 1018.10 1017.90 1014.91 1013.12 1013.13 1012.21 1008.22 1007.93 1007.37 1006.72 1006.22 1005.55 1004.70 1003.62 1003.47 1003.35 1002.51 1002.11 1001.61 1000.85 1000.91 1000.94 1000.80 1000.26 1001.34 1000.67 1000.11 999.89 1000.00 1000.62 1001.70 1001.87 1001.85 1002.12 1002.21 1002.23 1002.19 1002.27
1024.34 1024.03 1023.76 1023.45 1023.19 1022.99 1022.63 1022.30 1021.90 1021.50 1021.02 1020.60 1020.06 1019.45 1018.89 1018.48 1018.28 1018.16 1016.27 1014.50 1013.50 1011.44 1008.89 1007.16 1005.88 1005.65 1005.92 1006.03 1005.65 1004.95 1003.72 1003.57 1003.67 1003.78 1002.94 1001.88 1001.62 1001.34 1000.63 1000.51 1000.61 1001.43 1001.40 1000.64 1001.05 1001.33 1001.81 1001.92 1002.15 1002.26 1002.22 1002.56 1002.48 1002.65
1023.98 1023.72 1023.42 1023.14 1022.88 1022.64 1022.35 1022.04 1021.72 1021.32 1020.86 1020.36 1019.97 1019.53 1018.98 1018.75 1018.46 1018.22 1016.48 1014.81 1013.87 1011.96 1008.93 1005.12 1004.28 1004.77 1005.33 1005.17 1005.50 1005.44 1004.89 1004.73 1004.42 1004.23 1003.49 1002.57 1001.92 1002.12 1001.11 1001.37 1001.10 1001.18 1001.69 1001.20 1001.34 1001.89 1002.46 1002.48 1002.54 1002.76 1003.07 1003.18 1003.18 1003.36
1023.63 1023.37 1023.15 1022.92 1022.62 1022.32 1022.07 1021.80 1021.50 1021.13 1020.63 1020.17 1019.75 1019.44 1018.98 1018.67 1018.45 1017.73 1016.12 1014.78 1014.07 1013.10 1009.48 1006.31 1004.78 1004.44 1004.81 1004.93 1005.16 1005.42 1005.24 1004.86 1004.31 1003.97 1003.48 1002.65 1002.18 1002.75 1002.20 1001.97 1001.25 1001.37 1001.41 1001.52 1000.87 1001.33 1002.21 1002.32 1002.84 1003.06 1003.46 1003.51 1003.79 1004.01
1023.11 1022.94 1022.77 1022.53 1022.27 1021.93 1021.61 1021.43 1021.12 1020.77 1020.29 1019.91 1019.52 1019.24 1018.96 1018.62 1018.24 1016.64 1014.37 1013.73 1013.78 1013.63 1011.85 1007.52 1004.38 1004.06 1003.82 1004.36 1004.89 1004.97 1004.85 1004.55 1004.26 1003.62 1003.10 1002.66 1002.62 1003.54 1002.13 1001.66 1001.58 1001.17 1001.34 1001.50 1001.86 1002.60 1002.70 1002.67 1002.92 1003.56 1003.65 1003.85 1003.98 1004.35
1022.54 1022.31 1022.20 1021.99 1021.73 1021.40 1021.17 1020.97 1020.74 1020.39 1019.95 1019.54 1019.24 1018.99 1018.79 1018.57 1017.93 1016.73 1016.33 1016.61 1016.25 1015.11 1012.09 1008.45 1005.02 1003.55 1003.89 1004.26 1004.42 1004.49 1004.52 1004.39 1004.10 1003.86 1003.41 1002.97 1003.13 1004.28 1002.88 1001.72 1001.51 1002.03 1002.02 1002.29 1002.76 1003.22 1003.22 1003.23 1003.38 1003.52 1003.88 1003.99 1004.36 1004.51
1021.89 1021.74 1021.59 1021.46 1021.21 1020.95 1020.72 1020.52 1020.37 1020.05 1019.72 1019.36 1019.01 1018.75 1018.45 1018.19 1017.72 1016.52 1014.65 1015.54 1016.57 1015.06 1011.91 1008.35 1004.80 1003.16 1003.67 1003.35 1003.47 1003.78 1003.77 1004.00 1003.82 1003.73 1003.18 1003.00 1003.20 1003.61 1002.73 1002.23 1002.15 1002.66 1002.93 1003.17 1003.38 1003.44 1003.02 1003.11 1003.47 1003.89 1004.23 1004.36 1004.34 1004.47
1021.18 1021.00 1020.85 1020.76 1020.60 1020.38 1020.20 1020.10 1019.94 1019.72 1019.45 1019.07 1018.72 1018.30 1017.48 1017.00 1015.80 1015.30 1015.79 1015.90 1016.13 1015.92 1012.97 1008.59 1005.14 1002.77 1002.82 1002.64 1002.72 1003.19 1003.28 1003.17 1003.21 1003.04 1002.69 1002.71 1002.37 1002.33 1002.43 1002.61 1002.54 1002.78 1003.40 1003.53 1003.55 1003.58 1003.64 1003.68 1003.93 1004.21 1004.24 1004.32 1004.32 1004.35
1020.33 1020.24 1020.08 1019.99 1019.92 1019.84 1019.76 1019.73 1019.65 1019.42 1019.09 1018.74 1018.30 1016.74 1015.04 1014.39 1015.15 1015.56 1015.79 1015.86 1016.02 1015.03 1013.86 1010.54 1005.94 1003.19 1002.63 1002.16 1002.02 1002.79 1002.60 1002.15 1001.47 1001.71 1002.15 1001.76 1001.30 1001.68 1002.33 1002.52 1002.95 1003.52 1003.96 1003.94 1003.87 1003.82 1003.88 1003.93 1004.06 1004.15 1004.18 1004.15 1004.12 1004.27
1019.54 1019.48 1019.36 1019.32 1019.33 1019.30 1019.33 1019.36 1019.38 1019.20 1018.56 1017.84 1017.07 1015.28 1015.05 1015.23 1015.07 1014.95 1014.87 1014.94 1014.37 1013.51 1012.26 1010.12 1006.96 1004.20 1002.94 1001.75 1001.62 1002.11 1001.58 1001.66 1000.69 1000.29 1000.90 1000.46 1000.29 1000.94 1001.90 1002.41 1003.73 1004.33 1004.60 1004.56 1004.42 1004.41 1004.40 1004.41 1004.60 1004.55 1004.33 1004.20 1004.14 1004.42
1018.80 1018.82 1018.79 1018.74 1018.80 1018.86 1018.94 1019.10 1019.18 1019.02 1018.33 1018.37 1018.21 1016.44 1014.90 1014.63 1014.38 1014.43 1014.00 1013.56 1013.11 1011.86 1010.99 1008.98 1007.24 1005.92 1004.76 1003.12 1002.51 1002.05 1001.76 1001.13 999.83 999.63 999.65 999.56 999.96 1000.34 1001.24 1002.67 1003.94 1004.46 1004.73 1004.79 1004.97 1005.03 1004.96 1004.96 1005.00 1004.99 1004.88 1004.70 1004.64 1004.66
1018.14 1018.14 1018.16 1018.21 1018.32 1018.41 1018.59 1018.83 1018.94 1018.89 1018.51 1017.38 1017.27 1015.91 1014.22 1013.90 1013.75 1013.21 1012.75 1012.53 1012.06 1011.30 1010.72 1008.73 1007.14 1006.32 1005.76 1005.24 1003.71 1003.43 1002.24 1000.68 1000.13 999.43 998.65 999.63 1000.21 1001.54 1002.15 1003.04 1003.98 1004.44 1004.89 1005.13 1005.27 1005.39 1005.42 1005.37 1005.28 1005.22 1005.06 1005.10 1005.06 1005.01
1017.45 1017.56 1017.60 1017.70 1017.84 1018.06 1018.38 1018.61 1018.81 1018.79 1018.53 1017.66 1016.24 1015.26 1013.80 1012.26 1011.12 1010.80 1010.99 1011.14 1011.78 1011.83 1011.31 1010.77 1008.82 1006.58 1005.79 1005.67 1004.40 1003.74 1002.58 1001.23 1000.20 999.25 999.05 1000.30 1002.02 1002.93 1003.71 1004.21 1004.54 1004.80 1005.11 1005.28 1005.54 1005.71 1005.63 1005.66 1005.46 1005.46 1005.43 1005.37 1005.40 1005.31
1016.87 1017.04 1017.19 1017.35 1017.49 1017.85 1018.18 1018.45 1018.66 1018.24 1018.51 1017.76 1016.40 1014.57 1012.06 1010.41 1010.24 1010.23 1009.94 1010.31 1011.09 1011.77 1011.87 1011.64 1010.37 1008.57 1006.98 1006.57 1005.53 1004.45 1003.48 1001.42 999.84 999.65 999.97 1001.56 1002.97 1003.87 1004.49 1004.97 1005.00 1005.25 1005.55 1005.74 1005.95 1005.94 1006.03 1006.12 1005.95 1005.74 1005.73 1005.70 1005.56 1005.54
1016.46 1016.74 1016.58 1016.84 1017.31 1017.82 1018.20 1018.60 1018.80 1018.64 1018.51 1017.75 1016.39 1014.15 1011.92 1011.09 1010.15 1009.93 1010.03 1011.14 1011.72 1011.99 1011.90 1012.12 1011.34 1009.14 1007.78 1007.04 1006.26 1004.30 1002.43 1000.97 1000.46 1000.31 1001.61 1003.25 1004.29 1004.96 1005.35 1005.54 1005.82 1005.99 1006.38 1006.28 1006.49 1006.53 1006.52 1006.51 1006.39 1006.19 1006.03 1005.66 1005.49 1005.55
1016.34 1016.12 1016.33 1016.82 1017.36 1017.92 1018.35 1018.66 1018.75 1018.61 1018.16 1016.84 1015.49 1013.75 1013.17 1012.60 1011.91 1011.74 1011.00 1011.02 1010.90 1011.56 1012.10 1012.37 1011.83 1010.43 1008.95 1007.46 1006.25 1004.23 1003.14 1002.32 1001.78 1002.04 1003.58 1004.68 1005.39 1006.00 1006.36 1006.73 1007.05 1007.20 1007.12 1007.10 1007.25 1007.15 1007.04 1006.90 1006.62 1006.46 1006.09 1005.97 1005.85 1005.92
1015.98 1016.22 1016.47 1016.92 1017.49 1018.14 1018.55 1018.53 1018.41 1017.93 1016.98 1015.74 1014.41 1013.14 1012.83 1012.75 1012.59 1012.38 1011.94 1011.53 1011.22 1012.18 1012.43 1012.95 1012.62 1011.40 1010.03 1008.35 1007.10 1006.20 1004.77 1003.78 1003.43 1003.72 1004.91 1005.85 1006.40 1006.78 1006.91 1007.19 1007.57 1007.66 1007.69 1007.72 1007.64 1007.38 1007.19 1007.01 1006.94 1006.22 1006.36 1006.27 1006.23 1005.97
1015.82 1016.23 1016.55 1017.05 1017.42 1017.73 1018.14 1018.29 1018.33 1017.41 1016.25 1015.00 1014.07 1012.85 1012.32 1012.13 1012.16 1011.89 1011.40 1011.83 1012.33 1012.72 1013.01 1013.01 1012.48 1011.32 1010.28 1009.41 1008.98 1007.65 1006.50 1004.99 1004.65 1005.32 1006.29 1006.73 1007.08 1007.28 1007.37 1007.48 1007.59 1007.82 1007.97 1008.02 1007.82 1007.25 1007.20 1007.42 1007.17 1006.82 1006.50 1006.38 1006.31 1006.38
1016.26 1016.39 1016.84 1017.29 1017.37 1017.55 1017.48 1017.59 1017.74 1016.40 1014.77 1013.98 1013.77 1012.70 1011.85 1011.03 1010.73 1011.29 1011.01 1011.10 1011.59 1012.28 1012.53 1012.55 1011.97 1011.29 1011.14 1010.33 1010.00 1009.35 1008.44 1007.54 1006.76 1006.49 1006.72 1007.09 1007.50 1007.72 1007.56 1007.30 1007.10 1007.55 1007.83 1007.81 1007.71 1007.64 1007.28 1007.01 1006.77 1006.69 1006.56 1006.81 1007.51 1006.76
1016.63 1016.84 1017.30 1017.37 1017.55 1017.20 1017.19 1016.69 1016.49 1015.37 1013.60 1012.99 1011.98 1012.17 1011.32 1010.37 1009.95 1009.86 1009.84 1010.02 1010.58 1010.71 1010.99 1011.32 1011.35 1011.66 1011.14 1010.77 1010.43 1010.02 1009.44 1008.83 1008.28 1008.02 1007.83 1007.68 1007.73 1007.63 1007.53 1007.44 1007.63 1007.46 1007.44 1007.19 1006.88 1006.86 1007.38 1006.83 1006.79 1006.91 1006.92 1006.84 1006.94 1006.89
1016.82 1017.03 1017.38 1017.58 1016.96 1016.29 1015.96 1016.01 1015.74 1015.35 1014.33 1012.34 1011.73 1011.12 1010.47 1009.87 1009.26 1009.06 1009.16 1009.04 1009.15 1008.52 1009.21 1009.94 1010.24 1010.77 1011.01 1011.03 1010.54 1010.12 1009.40 1008.61 1008.17 1008.05 1007.80 1007.91 1007.75 1007.63 1007.54 1007.26 1007.02 1006.94 1007.05 1007.08 1007.11 1006.95 1006.84 1006.89 1007.01 1007.13 1007.22 1007.11 1007.27 1007.38
1016.95 1017.12 1016.94 1016.35 1015.97 1015.71 1015.32 1015.17 1015.10 1014.10 1013.26 1012.17 1011.84 1011.12 1009.76 1009.18 1009.06 1009.22 1008.39 1007.79 1007.55 1007.53 1007.92 1008.61 1009.26 1009.80 1010.32 1010.21 1009.77 1009.02 1008.65 1008.24 1007.67 1007.43 1007.35 1007.11 1006.91 1006.86 1006.77 1006.67 1006.60 1006.80 1006.97 1006.95 1006.97 1006.97 1007.07 1007.47 1007.53 1007.63 1007.31 1007.31 1007.26 1007.19
1017.05 1016.93 1016.11 1015.40 1015.30 1014.89 1013.96 1013.76 1013.46 1012.81 1012.44 1011.74 1010.85 1009.89 1009.36 1009.26 1009.06 1008.07 1007.35 1007.07 1006.48 1006.65 1006.63 1007.09 1007.30 1007.88 1008.16 1008.51 1008.58 1007.86 1007.20 1007.26 1007.28 1007.14 1006.90 1006.73 1006.46 1006.32 1006.35 1006.23 1006.26 1006.43 1006.66 1006.84 1006.93 1006.94 1007.06 1007.04 1007.24 1006.92 1006.77 1006.70 1006.60 1006.49
1016.90 1016.26 1015.82 1015.36 1014.47 1014.06 1013.11 1012.34 1012.00 1011.96 1011.57 1011.12 1010.39 1009.61 1009.33 1009.03 1008.46 1007.66 1006.93 1007.13 1005.95 1006.09 1006.27 1006.48 1006.71 1007.13 1007.04 1006.62 1006.41 1006.50 1006.48 1006.82 1006.72 1006.53 1006.23 1006.12 1006.02 1006.03 1005.91 1005.87 1005.91 1006.00 1006.17 1006.28 1006.38 1006.64 1006.73 1006.75 1006.75 1006.68 1006.66 1006.76 1006.74 1006.64
1015.91 1015.15 1015.07 1013.89 1013.32 1013.12 1012.39 1011.89 1011.28 1010.90 1010.48 1010.16 1009.50 1008.71 1008.16 1008.30 1008.14 1007.59 1007.07 1006.53 1006.48 1006.77 1006.79 1005.90 1005.51 1005.63 1005.74 1005.48 1005.25 1005.31 1005.54 1006.22 1006.46 1006.36 1005.86 1005.58 1005.63 1005.68 1005.50 1005.35 1005.32 1005.42 1005.61 1005.80 1005.85 1006.06 1006.32 1006.42 1006.39 1006.41 1006.42 1006.38 1006.93 1007.04
1014.75 1013.86 1013.42 1013.17 1012.95 1012.80 1012.31 1011.75 1011.27 1010.84 1010.04 1009.23 1008.83 1008.52 1008.23 1007.87 1007.63 1007.68 1007.38 1007.00 1007.06 1006.26 1005.93 1005.53 1005.44 1006.38 1005.90 1005.61 1005.64 1005.55 1005.58 1005.77 1005.89 1005.69 1005.67 1005.69 1005.57 1005.51 1005.40 1005.34 1005.44 1005.62 1005.83 1006.37 1006.50 1006.41 1006.34 1006.19 1006.02 1005.84 1005.89 1006.02 1006.14 1006.15
1013.56 1013.13 1013.00 1012.92 1013.05 1012.82 1012.85 1012.30 1011.23 1010.05 1009.36 1009.27 1008.89 1008.39 1007.94 1008.07 1008.63 1008.32 1007.83 1006.74 1006.24 1006.05 1005.93 1005.84 1005.80 1005.60 1005.66 1005.77 1005.67 1005.72 1005.78 1005.89 1006.01 1005.94 1005.78 1005.73 1005.73 1005.72 1005.61 1005.57 1005.72 1006.71 1006.58 1006.48 1006.19 1006.17 1006.23 1006.21 1006.06 1005.83 1005.91 1006.15 1006.39 1006.57
1012.44 1011.95 1011.90 1012.06 1012.47 1012.22 1011.86 1011.14 1010.06 1009.40 1008.90 1008.59 1008.46 1008.26 1008.16 1008.41 1007.75 1006.99 1006.63 1006.31 1006.13 1006.04 1005.75 1005.91 1006.03 1005.44 1005.40 1005.51 1005.63 1005.65 1005.58 1005.38 1005.31 1005.57 1005.72 1006.00 1006.24 1006.42 1006.65 1006.66 1006.34 1005.99 1005.63 1005.83 1006.64 1006.41 1006.14 1006.80 1006.72 1006.60 1006.22 1006.14 1006.40 1006.71
1010.73 1010.55 1010.74 1010.58 1010.58 1010.44 1009.61 1009.14 1008.93 1008.02 1007.99 1007.55 1007.89 1007.80 1007.54 1006.96 1006.46 1006.22 1006.17 1006.09 1006.02 1005.78 1005.78 1005.59 1005.51 1005.32 1005.58 1005.57 1005.81 1006.10 1006.06 1005.93 1006.25 1006.42 1006.57 1006.51 1006.20 1006.48 1006.56 1006.44 1006.27 1006.05 1006.13 1006.14 1006.32 1006.65 1007.16 1007.04 1006.86 1006.71 1006.65 1006.37 1006.03 1006.10
1009.71 1009.62 1009.64 1009.51 1009.10 1008.61 1008.16 1008.07 1007.67 1007.39 1007.28 1007.23 1007.25 1007.13 1007.16 1006.66 1005.98 1005.72 1005.85 1006.00 1005.95 1005.87 1005.60 1005.57 1005.48 1005.38 1005.37 1005.55 1006.11 1006.67 1006.33 1006.83 1006.73 1006.80 1007.11 1006.86 1006.68 1006.54 1006.55 1006.50 1006.33 1006.12 1006.39 1006.54 1006.30 1006.29 1006.39 1006.40 1006.51 1006.47 1006.11 1005.98 1006.07 1006.27
1009.56 1009.42 1009.28 1008.93 1008.58 1008.07 1007.83 1007.53 1007.32 1007.21 1007.17 1007.23 1007.47 1007.60 1007.51 1007.25 1006.80 1006.84 1006.73 1006.59 1006.51 1006.59 1006.66 1006.64 1006.59 1006.12 1006.35 1006.83 1006.75 1006.95 1007.48 1006.77 1007.36 1007.55 1007.66 1007.66 1007.47 1007.10 1006.69 1006.53 1006.64 1006.60 1006.30 1006.07 1006.05 1006.56 1006.56 1006.22 1005.97 1005.98 1006.21 1006.29 1006.56 1006.74
1009.54 1009.43 1009.32 1008.94 1008.55 1008.20 1007.85 1008.05 1007.92 1008.06 1008.53 1008.95 1009.11 1009.21 1008.90 1008.64 1008.22 1008.42 1008.01 1007.92 1007.58 1007.67 1007.58 1007.41 1007.31 1007.42 1007.71 1007.60 1007.78 1007.74 1007.90 1007.64 1007.91 1008.09 1008.24 1008.35 1008.35 1008.30 1008.12 1007.30 1006.64 1006.55 1006.32 1006.31 1005.81 1005.86 1005.90 1006.24 1006.26 1006.40 1006.64 1006.86 1006.84 1007.05
Wind_Speed
13 12 13 13 13 13 14 15 16 17 18 18 19 20 17 12 12 9 9 5 7 8 14 8 10 9 5 7 9 9 6 9 6 7 8 3 8 6 9 4 4 9 10 11 10 8 6 5 1 7 7 2 3 6
13 13 13 12 13 13 14 14 15 16 17 17 18 19 18 9 8 7 8 2 5 8 8 12 13 15 13 12 10 4 7 5 6 5 2 4 4 2 10 7 7 7 6 6 2 6 8 4 3 3 5 6 2 6
15 13 13 13 12 13 15 15 15 15 16 17 16 18 14 9 7 7 8 8 7 8 12 15 16 17 17 15 12 8 6 4 5 4 7 4 4 5 6 5 9 3 5 5 2 9 4 5 3 3 4 5 4 6
14 14 13 12 11 13 14 15 15 15 15 15 15 16 11 10 8 8 8 8 5 7 7 10 3 8 9 12 14 14 13 6 9 3 7 6 6 2 8 5 8 5 5 7 5 7 4 4 5 6 6 5 7 4
15 14 13 13 13 13 14 15 15 16 15 14 13 13 13 11 11 10 9 9 8 8 7 9 14 9 10 12 13 12 13 13 7 6 6 7 6 1 6 5 8 7 6 7 0 7 7 7 6 4 7 4 5 4
14 14 14 14 14 14 14 14 14 15 15 13 13 12 13 11 12 9 6 6 7 6 7 6 5 9 10 13 13 12 11 10 9 8 6 6 5 3 7 8 11 9 9 8 4 4 4 1 5 8 6 4 4 4
15 15 14 14 14 15 15 14 14 15 13 12 12 11 11 11 9 6 6 2 7 8 6 6 7 13 13 12 10 9 11 8 8 9 9 8 6 4 9 9 6 6 3 3 2 3 5 7 8 7 4 6 5 6
16 16 15 15 15 15 15 14 12 12 12 12 11 12 11 12 13 9 4 15 4 7 6 6 7 7 13 8 10 9 8 9 9 10 9 10 6 5 9 10 9 7 5 6 7 8 9 10 9 5 5 7 10 8
16 16 16 15 15 14 13 11 11 11 11 12 12 13 9 6 5 2 7 9 3 3 5 5 11 9 11 12 10 9 8 9 6 11 13 7 11 9 9 11 9 9 7 11 12 8 8 7 7 9 10 8 11 10
18 16 15 14 13 12 11 10 10 11 11 11 8 5 6 3 10 5 3 3 3 3 4 6 11 10 8 10 10 9 8 9 9 11 7 15 13 15 11 8 11 8 7 6 7 8 9 8 8 8 10 12 11 10
16 13 13 12 12 12 10 9 9 10 12 4 4 2 3 4 4 4 3 5 4 5 5 6 13 8 4 9 9 8 8 8 12 10 14 11 15 16 16 14 8 8 8 7 4 2 2 2 2 6 7 7 8 10
12 13 13 12 11 11 10 8 7 8 2 5 6 10 5 4 3 3 3 3 5 5 6 10 16 10 5 4 6 7 9 7 8 10 16 18 10 13 19 18 15 12 10 8 7 7 7 7 7 6 6 6 8 8
12 14 13 11 10 9 9 8 8 7 8 7 5 5 4 3 3 5 6 4 4 1 3 5 12 9 6 4 5 2 8 8 4 9 16 12 6 9 12 13 13 10 8 7 6 5 5 8 8 8 8 8 8 7
12 12 11 10 9 9 7 8 7 5 3 3 4 4 5 6 7 7 10 5 2 1 4 6 7 8 9 3 4 6 6 4 7 14 18 9 12 12 10 9 10 11 9 8 6 5 4 5 5 5 7 7 7 8
11 11 9 8 8 8 7 8 8 4 0 4 4 5 7 7 4 3 5 5 5 3 2 4 6 3 6 3 3 5 5 9 7 15 9 11 13 13 12 10 10 9 8 7 6 5 4 2 3 3 1 4 5 6
8 5 7 8 11 10 10 9 3 1 2 3 5 7 6 9 8 7 2 8 6 2 3 1 4 5 5 4 5 9 9 9 9 4 10 11 11 11 10 9 7 6 6 6 5 4 3 2 2 2 4 4 2 3
9 3 7 12 14 14 11 2 2 4 4 4 4 8 6 7 8 5 6 5 4 1 2 2 3 4 5 6 8 7 5 2 7 9 8 9 11 10 8 8 7 6 5 3 3 2 0 2 3 4 4 3 7 6
3 3 8 15 12 7 1 2 2 3 6 6 7 4 3 5 4 3 5 5 5 3 3 1 3 4 4 5 1 2 1 7 7 10 10 10 10 9 8 8 6 5 5 3 1 1 3 1 4 4 3 5 6 8
5 5 14 17 5 3 3 4 2 3 5 5 7 8 6 6 5 6 3 3 4 3 2 3 5 4 3 1 3 1 3 6 9 10 8 9 8 7 7 6 5 4 2 1 2 3 3 4 5 5 5 4 5 5
4 12 17 10 1 2 4 3 2 5 4 3 4 8 8 8 3 5 4 4 3 2 3 4 4 4 5 2 2 3 2 4 3 8 8 7 6 6 5 2 2 4 4 5 4 5 5 4 4 4 4 5 5 7
3 8 10 1 1 3 0 1 3 5 5 5 5 7 7 8 9 8 8 5 5 4 4 5 2 6 0 3 6 5 2 0 2 2 4 3 3 3 3 5 5 3 3 3 3 2 4 5 3 4 5 5 5 5
3 5 2 2 3 4 3 4 3 4 5 6 6 6 5 5 7 7 8 7 8 6 4 5 6 3 5 5 6 8 10 7 4 2 2 4 2 4 5 6 5 4 3 3 3 4 3 4 4 5 6 7 4 6
4 1 3 5 3 1 4 5 5 5 4 3 2 4 5 6 1 4 6 10 9 8 8 10 13 11 12 14 13 15 11 7 6 5 4 5 5 4 4 4 3 3 4 4 3 3 4 3 4 6 5 5 6 7
3 3 4 3 4 4 4 5 4 3 3 4 4 4 1 1 6 5 4 5 3 6 8 9 8 9 11 15 10 11 9 7 7 7 6 6 5 5 5 5 4 4 4 3 4 4 4 5 3 6 6 6 7 7
2 3 3 4 5 5 5 5 5 4 4 4 3 4 2 4 2 3 3 4 3 4 4 8 9 8 9 8 8 9 8 7 8 8 6 6 5 5 5 4 4 4 4 5 5 5 5 5 5 6 7 8 8 9
2 6 5 3 2 4 3 4 3 3 4 3 4 3 3 1 5 5 2 3 5 5 2 4 5 6 4 3 3 5 7 7 6 7 8 5 4 5 5 5 4 2 3 4 5 5 6 7 7 7 8 9 7 5
4 6 5 3 3 4 4 4 4 5 5 3 2 3 2 3 2 4 5 5 3 1 3 3 4 5 4 2 2 2 2 3 3 4 4 4 5 5 5 5 5 4 7 7 7 9 9 9 9 8 7 6 7 8
3 4 3 3 3 2 2 4 5 5 3 3 4 3 4 4 3 1 3 7 1 1 2 0 1 1 1 2 3 4 6 6 6 6 6 5 3 6 7 5 3 8 5 7 7 6 7 8 9 8 8 7 7 9
5 5 4 5 5 5 6 5 4 3 5 1 3 4 3 2 6 5 3 2 1 2 2 4 3 3 4 6 5 5 5 5 6 7 7 6 4 4 5 5 5 7 5 4 6 10 5 5 8 9 8 7 5 6
6 8 6 6 4 3 4 3 3 6 4 4 2 4 3 3 2 3 2 1 3 3 2 4 2 3 3 2 3 2 4 5 7 7 5 3 2 4 5 3 4 6 4 5 6 4 2 6 6 7 7 7 7 6
3 3 6 7 7 5 4 4 6 5 6 4 5 5 6 6 5 3 2 2 4 5 6 5 4 4 3 4 4 5 4 0 3 2 3 5 5 3 2 4 5 5 4 4 5 7 7 5 4 6 8 8 11 11
4 5 6 8 7 4 4 6 5 5 5 5 5 5 6 6 8 6 5 6 7 6 5 5 7 7 6 8 10 7 2 4 9 8 12 7 9 8 7 3 4 5 6 3 4 3 5 7 6 7 5 8 9 8
3 5 5 5 5 5 2 2 4 6 6 4 4 5 5 3 4 3 6 4 4 6 6 6 5 3 5 7 6 4 2 5 7 5 4 5 7 7 8 10 7 3 6 9 8 4 4 3 3 1 1 4 6 5
Wind_Direction
298 304 310 312 311 319 323 322 325 328 329 332 332 328 321 310 327 313 305 280 286 286 293 284 277 280 235 245 273 79 238 206 266 252 268 171 273 163 240 340 204 222 214 239 242 268 228 34 253 258 57 28 57 116
299 298 303 307 306 313 317 318 321 324 326 329 332 331 324 311 319 320 273 186 316 262 297 329 293 291 286 292 307 283 291 316 353 293 313 347 239 180 247 186 192 252 206 259 244 59 92 79 46 55 8 103 132 137
295 299 300 298 303 308 312 314 318 321 322 326 330 335 351 7 350 326 303 306 277 258 269 247 244 238 224 238 261 277 220 276 242 350 323 319 319 319 223 255 176 200 319 286 97 132 132 92 118 137 117 140 162 162
291 294 295 302 303 305 309 310 313 316 317 322 327 336 333 333 328 315 287 300 289 292 278 256 157 217 246 223 224 238 280 290 279 286 253 266 256 176 275 52 262 45 159 243 196 130 124 169 176 136 116 92 66 90
295 298 297 296 296 299 303 306 308 312 311 313 320 323 326 324 314 289 266 264 259 289 320 299 328 219 200 225 208 227 239 241 241 223 235 245 255 271 263 291 251 177 198 214 149 143 204 152 180 156 155 157 130 120
287 288 290 290 289 289 294 299 303 307 310 304 310 314 314 316 319 276 229 202 244 241 276 262 285 223 213 196 208 217 225 225 242 243 253 252 79 272 249 231 237 253 222 219 261 132 186 127 136 182 199 202 175 177
280 278 280 287 291 288 287 287 295 302 304 301 301 301 302 301 292 273 340 327 336 305 245 241 227 197 202 197 206 209 214 221 231 234 244 252 196 192 265 260 161 249 239 251 250 202 227 214 220 197 241 248 161 246
273 277 277 280 284 286 289 289 290 298 301 300 295 291 290 289 272 258 255 208 209 267 268 255 254 151 188 192 199 202 200 205 207 237 222 227 186 216 243 237 232 191 202 204 206 217 237 201 220 176 227 246 249 214
271 273 272 272 275 281 282 287 288 294 297 300 295 290 272 223 227 70 76 121 179 309 291 247 236 198 159 216 198 177 210 205 220 209 233 206 229 208 219 239 219 212 221 226 223 228 233 245 232 233 238 236 240 214
267 274 272 266 269 274 275 271 281 288 297 299 278 216 231 72 103 161 151 183 177 217 222 264 258 246 199 199 191 176 204 220 201 207 217 226 233 222 203 220 200 172 206 198 202 207 212 231 239 248 244 239 218 225
267 272 272 261 260 267 263 255 273 293 270 234 242 289 23 142 213 206 214 214 179 214 198 235 257 251 237 219 194 207 179 219 229 209 202 220 223 220 229 177 175 185 200 205 242 341 308 341 315 287 239 237 235 213
258 264 265 252 253 258 241 234 260 256 305 326 279 270 258 219 207 225 223 227 226 223 176 214 226 250 307 287 255 198 228 211 231 207 212 223 221 206 196 169 177 183 200 206 222 244 247 243 246 248 262 253 237 232
251 258 257 244 244 242 220 226 234 281 292 261 221 245 212 195 244 222 195 226 252 101 354 269 209 223 214 270 241 175 230 233 239 233 218 211 159 132 154 170 174 182 193 221 224 230 236 240 234 242 239 235 250 250
244 260 244 231 230 200 201 227 203 215 258 269 252 245 225 216 222 183 227 168 134 285 1 327 294 198 213 205 228 215 244 293 222 222 213 150 150 145 154 174 177 179 190 191 195 194 207 215 227 228 238 242 257 255
238 242 233 229 212 184 199 177 182 216 125 264 253 249 240 240 249 323 305 181 139 143 63 328 297 283 201 224 270 227 186 230 227 213 219 114 142 151 154 170 174 167 178 182 181 186 172 166 214 185 83 289 257 249
215 173 211 177 158 160 153 146 192 155 230 254 256 271 285 284 289 306 353 70 5 32 147 103 280 247 191 187 197 220 221 214 209 196 98 131 144 150 156 158 155 148 166 178 166 168 187 189 262 303 282 268 272 234
161 236 155 159 156 154 152 133 166 201 239 237 244 296 299 278 281 326 344 17 334 175 154 95 276 305 311 195 200 222 238 289 92 101 123 122 140 143 140 140 150 169 171 157 154 164 41 280 327 297 281 332 324 323
173 153 168 152 142 116 103 218 213 236 243 237 253 234 269 278 274 292 294 42 8 44 353 39 317 281 281 294 39 349 336 138 129 119 122 130 133 137 145 137 140 155 148 158 166 276 242 313 289 260 332 293 303 262
128 149 150 142 137 131 168 178 218 261 253 304 299 275 253 238 221 219 259 116 77 65 245 271 241 231 272 339 286 237 342 96 118 111 118 127 133 135 137 140 145 163 161 213 289 315 352 319 302 303 291 293 303 342
118 156 148 137 98 178 189 171 238 252 252 195 249 262 267 267 223 232 255 229 170 151 232 194 262 312 310 16 357 310 360 18 50 127 132 135 134 152 137 155 169 109 210 199 222 219 240 256 271 266 304 359 314 284
123 124 117 108 85 252 216 299 231 252 278 250 217 214 256 248 235 237 245 223 228 204 213 207 261 286 285 346 320 320 286 109 100 57 73 123 118 99 143 175 199 228 253 283 280 154 203 255 321 298 296 290 300 323
87 126 118 194 251 214 247 188 263 290 268 279 289 257 248 251 243 233 235 216 233 239 179 204 184 262 153 209 247 262 265 230 249 354 301 164 217 221 222 219 210 202 223 258 274 284 298 298 334 340 324 309 320 298
112 70 224 223 235 175 250 165 238 216 252 259 314 262 234 230 287 251 214 211 220 225 187 203 183 182 198 218 228 226 206 244 264 219 229 241 254 240 240 237 229 230 244 251 253 257 280 27 251 247 295 284 288 283
197 196 231 220 209 266 228 213 233 235 257 266 251 265 280 266 204 233 205 238 196 214 202 210 198 204 217 218 214 240 229 231 254 260 262 263 261 249 244 237 221 230 230 242 258 265 272 278 290 264 273 286 287 287
212 236 191 265 228 236 243 232 208 220 234 262 263 260 218 220 268 288 23 312 164 137 195 186 198 205 229 226 218 234 237 237 246 257 264 245 248 255 249 248 240 246 231 241 231 239 276 292 284 287 304 304 305 317
240 195 203 232 239 239 258 271 268 269 271 245 257 238 229 194 226 205 143 110 75 55 337 211 197 181 195 284 234 190 169 197 220 251 254 235 235 252 258 256 276 280 262 267 301 255 255 268 275 283 282 281 174 289
242 221 222 233 265 286 291 286 302 280 261 274 320 320 263 253 5 50 5 36 39 319 29 12 73 130 239 153 132 116 137 181 215 274 356 337 301 291 289 285 281 320 8 336 305 291 284 281 281 281 295 302 294 313
269 262 230 287 325 22 303 296 269 242 297 345 284 286 343 44 40 79 242 273 342 8 26 218 212 289 349 132 166 180 198 198 203 218 235 233 263 270 249 266 307 114 278 278 284 307 290 274 274 285 311 315 318 320
231 214 207 239 202 216 214 231 246 263 243 273 306 4 33 113 223 227 233 290 289 303 300 102 294 232 207 189 209 214 232 239 235 220 219 213 223 306 10 336 278 258 280 321 182 257 310 310 314 322 295 287 315 300
227 187 212 237 212 254 240 234 296 281 280 295 165 244 267 248 269 242 264 209 275 274 272 281 265 258 249 210 166 0 321 2 24 20 13 330 305 160 209 286 316 293 319 312 312 104 217 231 193 232 247 272 286 306
301 264 256 272 271 248 234 272 278 282 283 280 250 242 262 282 272 246 191 335 300 283 292 298 300 289 280 207 129 228 202 316 301 290 322 321 279 311 326 303 290 288 347 307 296 313 315 288 264 259 267 293 315 306
261 254 262 271 276 303 329 294 305 296 313 351 1 347 359 346 323 34 12 360 5 339 18 303 315 333 12 12 22 65 317 329 44 30 24 354 349 342 321 331 341 338 304 304 338 293 287 328 337 356 4 351 352 346
245 274 288 285 264 248 244 336 308 359 20 2 335 3 333 320 318 359 353 340 10 1 349 336 344 41 28 21 28 26 319 346 62 20 357 342 342 334 310 292 296 292 292 313 305 278 264 281 308 93 347 336 333 326